COSMOS 2251 DEB, 34389

Orbit data source: Space-Track

COSMOS 2251 DEB, 34389 is space debris in LEO originally from a launch on Wed, 16 Jun 1993 UTC launched from the Plesetsk Missile And Space Complex (PKMTR). The debris from Iridium 33, an American commercial communications satellite, has been tracked extensively since its accidental collision with the defunct Russian satellite Cosmos 2251 in 2009. This event, occurring at high speed in low Earth orbit (LEO), generated thousands of pieces of space debris, significantly increasing the risk of further collisions. The Iridium 33 debris cloud has impacted space traffic management and orbital debris mitigation strategies, making it a subject of ongoing study in space situational awareness.

Loading next visibility...
Identifier
34389, 1993-036QE
Orbit
LEO
Country
Flag of CISCIS
Related business
Manufacturer
Unknown
Mission
Spacecraft
Bus & Motor
Unknown
Mass
Unknown
Launch date (UTC)
1993-06-16 (33 years ago)
Launch vehicle
Unknown
Launch site
Plesetsk Missile And Space Complex (PKMTR)
Object type
Payload
Rocket body
Debris
Shape & HBR
Unknown shape, 0.1 m
Radar Cross Section
Small (<0.1 m²)

Expand to show TLE details & history
Last TLE update: 9 hours ago

TLE from 9 hours ago
0 COSMOS 2251 DEB
1 34389U 93036QE  25354.09119881  .00000745  00000-0  23610-3 0  9995
2 34389  74.0181 236.1826 0029245 346.9054 132.7507 14.41549017881188
Epoch: 2025-12-20T02:11Z
TLE epoch observation values (Epoch: 2025-12-20T02:11:19.577Z)
Latitude
56.55521°
Longitude
-91.12252°
Altitude
776.68 km
Speed
7.464 km/s
True Right ascension
02h 02m 31s
True Declination
56° 23' 50"
Sunlit
Object was in full shadow at epoch
Visualization orbit readout
Latitude
Unknown
Longitude
Unknown
Altitude
Unknown
Speed
Unknown
Apparent Right ascension
Unknown
Apparent Declination
Unknown
Sunlit
N/A
Visualization observer readout
Local Sidereal Time
10:09:10
Azimuth
Unknown
Elevation
Unknown
Doppler factor
Unknown
Orbital elements
Apogee altitude
771.854 km
Perigee altitude
730.155 km
Semi-major axis
7,129.141 km
Eccentricity
0.00292
Inclination
74.0181°
RAAN
236.1826°
Arg. of periapsis
346.9054°
True anomaly
132.99618°
Mean anomaly
132.7507°
Eccentric anomaly
132.8735°
Mean motion
3.60568 °/min
Orbital period
99.84 mins
BSTAR
0.0002361
Loading maneuver chart data...
Computing Atmospheric mass density...

Documentation

Showing up to 5 results
|